Weather History for Ellensburg, WA

Change the Weather History Date:

Friday, May 3, 2013

  Actual Average (KYKM) Record (KYKM)
Temperature  
Mean Temperature 62 °F 53 °F  
Max Temperature 79 °F 69 °F 87 °F (1971)
Min Temperature 45 °F 38 °F 27 °F (1959)
Degree Days  
Heating Degree Days 3 12  
Month to date heating degree days 36  
Since 1 July heating degree days 5718  
Cooling Degree Days 0 0  
Month to date cooling degree days 0  
Year to date cooling degree days 1  
Growing Degree Days 12 (Base 50)    
Moisture  
Dew Point 34 °F    
Average Humidity 37    
Maximum Humidity 64    
Minimum Humidity 19    
Precipitation  
Precipitation 0.00 in 0.01 in 0.11 in (1960)
Month to date precipitation 0.05  
Year to date precipitation 3.14  
Snow  
Snow 0.00 in 0.00 in 0.00 in (2002)
Month to date snowfall 0.0  
Year to date snowfall 8.6  
Since 1 July snowfall 21.6  
Snow Depth -    
Sea Level Pressure  
Sea Level Pressure 30.23 in    
Wind  
Wind Speed 9 mph (NW)    
Max Wind Speed 17 mph    
Max Gust Speed 25 mph    
Visibility 10 miles    
Events      
T = Trace of Precipitation, MM = Missing Value Source: NWS Daily Summary

Daily Weather History Graph

Daily Weather History Graph

Search for Another Location

Airport:

Trip Planner

Search our weather history database for the weather conditions in past years. The results will help you decide how hot, cold, wet, or windy it might be!

Date:

Astronomy

May. 03, 2013 Rise Set
Actual Time 5:42 AM PDT 8:15 PM PDT
Civil Twilight 5:08 AM PDT 8:50 PM PDT
Nautical Twilight 4:25 AM PDT 9:33 PM PDT
Astronomical Twilight 3:35 AM PDT 10:23 PM PDT
Moon 2:34 AM PDT (5/3) 1:53 PM PDT (5/3)
Length of Visible Light 15h 41m
Length of Day
14h 33m
Waning Crescent, 36% of the Moon is Illuminated
May 3
Waning Crescent
May 9
New
May 17
First Quarter
May 24
Full
May 31
Last Quarter

Hourly Weather History & Observations

Time (PDT) Temp. Dew Point Humidity Pressure Visibility Wind Dir Wind Speed Gust Speed Precip Events Conditions
12:53 AM 57.9 °F 33.1 °F 39% 30.25 in 10.0 mi WNW 17.3 mph - N/A   Overcast
1:53 AM 55.0 °F 32.0 °F 42% 30.24 in 10.0 mi NW 17.3 mph - N/A   Scattered Clouds
2:53 AM 55.0 °F 30.0 °F 38% 30.25 in 10.0 mi NNW 17.3 mph 25.3 mph N/A   Clear
4:53 AM 48.0 °F 30.9 °F 52% 30.28 in 10.0 mi East 4.6 mph - N/A   Clear
5:53 AM 45.0 °F 30.9 °F 58% 30.30 in 10.0 mi Calm Calm - N/A   Clear
6:53 AM 48.9 °F 34.0 °F 56% 30.31 in 10.0 mi Calm Calm - N/A   Clear
7:53 AM 53.1 °F 33.1 °F 47% 30.32 in 10.0 mi East 4.6 mph - N/A   Clear
8:53 AM 57.0 °F 35.1 °F 44% 30.31 in 10.0 mi Calm Calm - N/A   Clear
9:53 AM 62.1 °F 36.0 °F 38% 30.30 in 10.0 mi Variable 4.6 mph - N/A   Clear
10:53 AM 69.1 °F 35.1 °F 29% 30.28 in 10.0 mi SW 5.8 mph - N/A   Clear
11:53 AM 71.1 °F 33.1 °F 25% 30.27 in 10.0 mi SSW 4.6 mph - N/A   Clear
12:53 PM 75.0 °F 34.0 °F 22% 30.23 in 10.0 mi South 6.9 mph - N/A   Clear
1:53 PM 75.0 °F 32.0 °F 21% 30.22 in 10.0 mi Calm Calm - N/A   Clear
2:53 PM 77.0 °F 30.9 °F 19% 30.20 in 10.0 mi NW 3.5 mph - N/A   Clear
3:53 PM 79.0 °F 34.0 °F 20% 30.17 in 10.0 mi ESE 8.1 mph - N/A   Clear
4:53 PM 78.1 °F 35.1 °F 21% 30.16 in 10.0 mi SE 8.1 mph - N/A   Clear
5:53 PM 78.1 °F 35.1 °F 21% 30.15 in 10.0 mi SSE 5.8 mph - N/A   Clear
6:53 PM 77.0 °F 33.1 °F 20% 30.15 in 10.0 mi Calm Calm - N/A   Clear
7:53 PM 68.0 °F 37.9 °F 33% 30.16 in 10.0 mi NNW 11.5 mph - N/A   Clear
8:53 PM 64.9 °F 39.0 °F 39% 30.18 in 10.0 mi NNW 13.8 mph - N/A   Clear
9:53 PM 61.0 °F 39.9 °F 46% 30.19 in 10.0 mi NW 9.2 mph - N/A   Clear
10:53 PM 57.9 °F 39.9 °F 51% 30.19 in 10.0 mi West 4.6 mph - N/A   Clear
11:53 PM 48.9 °F 37.0 °F 64% 30.21 in 10.0 mi NNE 5.8 mph - N/A   Clear